Time,TemperatureF,DewpointF,PressureIn,WindDirection,WindDirectionDegrees,WindSpeedMPH,WindSpeedGustMPH,Humidity,HourlyPrecipIn,Conditions,Clouds,dailyrainin,SolarRadiationWatts/m^2,SoftwareType,DateUTC
2013-06-30 00:02:00,64.3,62.2,30.44,East,89,5.0,9.0,93,0.00,,,0.00,0003,Weather View 32 v70,2013-06-29 11:02:00,
2013-06-30 00:07:00,64.4,62.3,30.44,ENE,66,2.0,9.0,93,0.00,,,0.00,0003,Weather View 32 v70,2013-06-29 11:07:00,
2013-06-30 00:08:00,64.3,62.2,30.44,ENE,60,3.0,9.0,93,0.00,,,0.00,0003,Weather View 32 v70,2013-06-29 11:08:00,
2013-06-30 00:13:00,64.3,62.2,30.44,East,97,2.0,9.0,93,0.00,,,0.00,0003,Weather View 32 v70,2013-06-29 11:13:00,
2013-06-30 00:18:00,64.2,62.1,30.44,East,85,4.0,9.0,93,0.00,,,0.00,0003,Weather View 32 v70,2013-06-29 11:18:00,
2013-06-30 00:23:00,64.2,62.1,30.44,East,87,6.0,9.0,93,0.00,,,0.00,0003,Weather View 32 v70,2013-06-29 11:23:00,
2013-06-30 00:28:00,64.2,62.1,30.44,ENE,63,3.0,10.0,93,0.00,,,0.00,0003,Weather View 32 v70,2013-06-29 11:28:00,
2013-06-30 00:33:00,64.0,61.9,30.43,ENE,74,3.0,10.0,93,0.00,,,0.00,0003,Weather View 32 v70,2013-06-29 11:33:00,
2013-06-30 00:38:00,63.7,61.9,30.43,ENE,66,9.0,12.0,94,0.00,,,0.00,0003,Weather View 32 v70,2013-06-29 11:38:00,
2013-06-30 00:43:00,63.5,61.7,30.43,ENE,64,8.0,15.0,94,0.00,,,0.00,0003,Weather View 32 v70,2013-06-29 11:43:00,
2013-06-30 00:48:00,63.4,61.6,30.42,ENE,69,8.0,15.0,94,0.00,,,0.00,0003,Weather View 32 v70,2013-06-29 11:48:00,
2013-06-30 00:53:00,63.4,61.9,30.42,ENE,60,11.0,15.0,95,0.00,,,0.00,0003,Weather View 32 v70,2013-06-29 11:53:00,
2013-06-30 00:58:00,63.4,61.9,30.43,ESE,108,2.0,15.0,95,0.00,,,0.00,0003,Weather View 32 v70,2013-06-29 11:58:00,
2013-06-30 01:03:00,63.4,61.9,30.43,ESE,110,5.0,15.0,95,0.00,,,0.00,0003,Weather View 32 v70,2013-06-29 12:03:00,
2013-06-30 01:08:00,63.4,61.9,30.44,NE,38,2.0,15.0,95,0.00,,,0.00,0003,Weather View 32 v70,2013-06-29 12:08:00,
2013-06-30 01:13:00,62.8,61.3,30.44,West,278,9.0,15.0,95,0.00,,,0.00,0003,Weather View 32 v70,2013-06-29 12:13:00,
2013-06-30 01:18:00,60.9,59.5,30.45,West,263,8.0,15.0,95,0.00,,,0.00,0003,Weather View 32 v70,2013-06-29 12:18:00,
2013-06-30 01:23:00,59.8,58.7,30.43,ENE,77,4.0,15.0,96,0.00,,,0.00,0003,Weather View 32 v70,2013-06-29 12:23:00,
2013-06-30 01:28:00,60.0,58.9,30.43,ESE,103,6.0,15.0,96,0.00,,,0.00,0003,Weather View 32 v70,2013-06-29 12:28:00,
2013-06-30 01:33:00,60.9,60.3,30.42,ENE,63,7.0,15.0,98,0.00,,,0.00,0003,Weather View 32 v70,2013-06-29 12:33:00,
2013-06-30 01:38:00,61.8,61.2,30.42,East,84,2.0,15.0,98,0.00,,,0.00,0003,Weather View 32 v70,2013-06-29 12:38:00,
2013-06-30 01:43:00,62.6,62.0,30.42,ENE,76,10.0,14.0,98,0.00,,,0.00,0003,Weather View 32 v70,2013-06-29 12:43:00,
2013-06-30 01:48:00,63.0,62.4,30.42,ENE,78,7.0,14.0,98,0.00,,,0.00,0003,Weather View 32 v70,2013-06-29 12:48:00,
2013-06-30 01:53:00,63.2,62.3,30.43,ESE,103,3.0,14.0,97,0.00,,,0.00,0003,Weather View 32 v70,2013-06-29 12:53:00,
2013-06-30 01:58:00,62.1,60.9,30.44,WNW,297,3.0,14.0,96,0.00,,,0.00,0003,Weather View 32 v70,2013-06-29 12:58:00,
2013-06-30 02:03:00,60.6,59.7,30.44,WNW,291,4.0,14.0,97,0.00,,,0.00,0003,Weather View 32 v70,2013-06-29 13:03:00,
2013-06-30 02:08:00,59.4,58.5,30.44,WNW,285,4.0,14.0,97,0.00,,,0.00,0003,Weather View 32 v70,2013-06-29 13:08:00,
2013-06-30 02:13:00,58.9,58.3,30.45,West,279,2.0,14.0,98,0.00,,,0.00,0003,Weather View 32 v70,2013-06-29 13:13:00,
2013-06-30 02:18:00,58.3,57.7,30.45,WSW,246,3.0,14.0,98,0.00,,,0.00,0003,Weather View 32 v70,2013-06-29 13:18:00,
2013-06-30 02:23:00,58.0,57.4,30.44,SW,232,3.0,14.0,98,0.00,,,0.00,0003,Weather View 32 v70,2013-06-29 13:23:00,
2013-06-30 02:28:00,58.1,57.8,30.44,SSE,160,1.0,14.0,99,0.00,,,0.00,0003,Weather View 32 v70,2013-06-29 13:28:00,
2013-06-30 02:33:00,58.3,58.0,30.44,SE,130,1.0,14.0,99,0.00,,,0.00,0003,Weather View 32 v70,2013-06-29 13:33:00,
2013-06-30 02:38:00,58.5,58.5,30.44,West,280,2.0,14.0,100,0.00,,,0.00,0003,Weather View 32 v70,2013-06-29 13:38:00,
2013-06-30 02:43:00,59.1,59.1,30.44,NW,306,2.0,14.0,100,0.00,,,0.00,0003,Weather View 32 v70,2013-06-29 13:43:00,
2013-06-30 02:48:00,59.5,59.5,30.44,NW,311,3.0,10.0,100,0.00,,,0.00,0003,Weather View 32 v70,2013-06-29 13:48:00,
2013-06-30 02:53:00,59.7,59.7,30.44,NNW,338,2.0,9.0,100,0.00,,,0.00,0003,Weather View 32 v70,2013-06-29 13:53:00,
2013-06-30 02:58:00,60.0,60.0,30.44,North,359,1.0,7.0,100,0.00,,,0.00,0003,Weather View 32 v70,2013-06-29 13:58:00,
2013-06-30 03:03:00,60.2,60.2,30.43,ENE,74,2.0,6.0,100,0.00,,,0.00,0003,Weather View 32 v70,2013-06-29 14:03:00,
2013-06-30 03:08:00,60.9,60.9,30.43,ENE,76,2.0,5.0,100,0.00,,,0.00,0003,Weather View 32 v70,2013-06-29 14:08:00,
2013-06-30 03:13:00,61.3,61.3,30.43,ENE,58,0.0,5.0,100,0.00,,,0.00,0003,Weather View 32 v70,2013-06-29 14:13:00,
2013-06-30 03:18:00,61.6,61.6,30.43,SW,220,1.0,5.0,100,0.00,,,0.00,0003,Weather View 32 v70,2013-06-29 14:18:00,
2013-06-30 03:23:00,61.7,61.7,30.42,WNW,282,2.0,5.0,100,0.00,,,0.00,0003,Weather View 32 v70,2013-06-29 14:23:00,
2013-06-30 03:28:00,62.2,62.2,30.43,West,266,0.0,4.0,100,0.00,,,0.00,0003,Weather View 32 v70,2013-06-29 14:28:00,
2013-06-30 03:33:00,63.6,63.6,30.42,SE,128,1.0,4.0,100,0.00,,,0.00,0003,Weather View 32 v70,2013-06-29 14:33:00,
2013-06-30 03:38:00,64.5,64.5,30.43,ESE,107,1.0,4.0,100,0.00,,,0.00,0003,Weather View 32 v70,2013-06-29 14:38:00,
2013-06-30 03:43:00,65.7,65.7,30.43,East,79,0.0,4.0,100,0.00,,,0.00,0003,Weather View 32 v70,2013-06-29 14:43:00,
2013-06-30 03:48:00,66.3,65.7,30.43,NE,43,2.0,4.0,98,0.00,,,0.00,0003,Weather View 32 v70,2013-06-29 14:48:00,
2013-06-30 03:53:00,65.5,64.6,30.43,WNW,291,2.0,5.0,97,0.00,,,0.00,0003,Weather View 32 v70,2013-06-29 14:53:00,
2013-06-30 03:58:00,64.5,63.3,30.43,NNW,330,2.0,5.0,96,0.00,,,0.00,0003,Weather View 32 v70,2013-06-29 14:58:00,
2013-06-30 04:03:00,64.4,63.2,30.43,West,278,2.0,5.0,96,0.00,,,0.00,0003,Weather View 32 v70,2013-06-29 15:03:00,
2013-06-30 04:08:00,64.4,63.2,30.43,NW,308,3.0,5.0,96,0.00,,,0.00,0003,Weather View 32 v70,2013-06-29 15:08:00,
2013-06-30 04:13:00,64.5,63.0,30.43,NW,314,3.0,5.0,95,0.00,,,0.00,0003,Weather View 32 v70,2013-06-29 15:13:00,
2013-06-30 04:18:00,64.3,62.8,30.43,NW,314,2.0,5.0,95,0.00,,,0.00,0003,Weather View 32 v70,2013-06-29 15:18:00,
2013-06-30 04:23:00,64.7,63.2,30.43,North,3,1.0,5.0,95,0.00,,,0.00,0003,Weather View 32 v70,2013-06-29 15:23:00,
2013-06-30 04:28:00,65.2,63.4,30.43,WSW,248,3.0,5.0,94,0.00,,,0.00,0003,Weather View 32 v70,2013-06-29 15:28:00,
2013-06-30 04:34:00,65.4,63.3,30.43,West,271,3.0,5.0,93,0.00,,,0.00,0003,Weather View 32 v70,2013-06-29 15:34:00,
2013-06-30 04:39:00,64.8,62.7,30.43,West,276,2.0,5.0,93,0.00,,,0.00,0003,Weather View 32 v70,2013-06-29 15:39:00,
2013-06-30 04:44:00,64.0,61.9,30.43,West,260,2.0,6.0,93,0.00,,,0.00,0003,Weather View 32 v70,2013-06-29 15:44:00,
2013-06-30 04:49:00,64.0,61.9,30.43,West,273,2.0,6.0,93,0.00,,,0.00,0003,Weather View 32 v70,2013-06-29 15:49:00,
2013-06-30 04:54:00,64.1,62.0,30.43,SW,233,4.0,6.0,93,0.00,,,0.00,0003,Weather View 32 v70,2013-06-29 15:54:00,
2013-06-30 04:59:00,64.1,62.0,30.43,WNW,301,2.0,6.0,93,0.00,,,0.00,0003,Weather View 32 v70,2013-06-29 15:59:00,
2013-06-30 05:04:00,64.4,62.3,30.43,North,358,2.0,6.0,93,0.00,,,0.00,0003,Weather View 32 v70,2013-06-29 16:04:00,
2013-06-30 05:09:00,64.2,62.1,30.43,West,274,3.0,6.0,93,0.00,,,0.00,0003,Weather View 32 v70,2013-06-29 16:09:00,
2013-06-30 05:14:00,63.6,61.5,30.43,WNW,285,4.0,7.0,93,0.00,,,0.00,0003,Weather View 32 v70,2013-06-29 16:14:00,
2013-06-30 05:19:00,63.5,61.4,30.43,West,279,4.0,7.0,93,0.00,,,0.00,0003,Weather View 32 v70,2013-06-29 16:19:00,
2013-06-30 05:24:00,63.8,62.0,30.43,WNW,288,5.0,7.0,94,0.00,,,0.00,0003,Weather View 32 v70,2013-06-29 16:24:00,
2013-06-30 05:29:00,64.2,62.4,30.43,SW,236,4.0,7.0,94,0.00,,,0.00,0003,Weather View 32 v70,2013-06-29 16:29:00,
2013-06-30 05:34:00,64.4,62.3,30.43,WNW,289,4.0,7.0,93,0.00,,,0.00,0003,Weather View 32 v70,2013-06-29 16:34:00,
2013-06-30 05:39:00,64.5,62.4,30.43,WNW,287,2.0,8.0,93,0.00,,,0.00,0003,Weather View 32 v70,2013-06-29 16:39:00,
2013-06-30 05:44:00,64.7,62.6,30.43,South,191,2.0,8.0,93,0.00,,,0.00,0003,Weather View 32 v70,2013-06-29 16:44:00,
2013-06-30 05:49:00,64.9,62.8,30.43,West,279,4.0,8.0,93,0.00,,,0.00,0003,Weather View 32 v70,2013-06-29 16:49:00,
2013-06-30 05:54:00,64.6,62.5,30.43,NW,311,3.0,8.0,93,0.00,,,0.00,0003,Weather View 32 v70,2013-06-29 16:54:00,
2013-06-30 05:59:00,64.0,61.9,30.44,West,276,4.0,8.0,93,0.00,,,0.00,0003,Weather View 32 v70,2013-06-29 16:59:00,
2013-06-30 06:04:00,63.3,61.2,30.43,WNW,283,3.0,8.0,93,0.00,,,0.00,0003,Weather View 32 v70,2013-06-29 17:04:00,
2013-06-30 06:09:00,63.6,61.8,30.43,West,259,2.0,8.0,94,0.00,,,0.00,0003,Weather View 32 v70,2013-06-29 17:09:00,
2013-06-30 06:14:00,64.7,62.9,30.43,West,275,3.0,8.0,94,0.00,,,0.00,0003,Weather View 32 v70,2013-06-29 17:14:00,
2013-06-30 06:19:00,66.2,64.1,30.43,West,272,2.0,8.0,93,0.00,,,0.00,0003,Weather View 32 v70,2013-06-29 17:19:00,
2013-06-30 06:24:00,67.5,65.1,30.43,WNW,302,2.0,8.0,92,0.00,,,0.00,0003,Weather View 32 v70,2013-06-29 17:24:00,
2013-06-30 06:29:00,68.2,65.1,30.43,WNW,288,4.0,8.0,90,0.00,,,0.00,0003,Weather View 32 v70,2013-06-29 17:29:00,
2013-06-30 06:34:00,68.0,64.3,30.43,West,278,3.0,8.0,88,0.00,,,0.00,0003,Weather View 32 v70,2013-06-29 17:34:00,
2013-06-30 06:39:00,68.0,64.0,30.43,NW,323,3.0,7.0,87,0.00,,,0.00,0003,Weather View 32 v70,2013-06-29 17:39:00,
2013-06-30 06:44:00,67.4,63.4,30.43,West,275,3.0,7.0,87,0.00,,,0.00,0003,Weather View 32 v70,2013-06-29 17:44:00,
2013-06-30 06:49:00,66.9,62.9,30.43,WNW,283,3.0,7.0,87,0.00,,,0.00,0003,Weather View 32 v70,2013-06-29 17:49:00,
2013-06-30 06:54:00,66.8,63.1,30.43,WNW,288,3.0,6.0,88,0.00,,,0.00,0003,Weather View 32 v70,2013-06-29 17:54:00,
2013-06-30 06:59:00,67.3,63.6,30.44,West,279,2.0,6.0,88,0.00,,,0.00,0003,Weather View 32 v70,2013-06-29 17:59:00,
2013-06-30 07:04:00,67.7,63.7,30.44,WNW,287,2.0,6.0,87,0.00,,,0.00,0003,Weather View 32 v70,2013-06-29 18:04:00,
2013-06-30 07:09:00,68.4,64.4,30.44,WSW,242,3.0,6.0,87,0.00,,,0.00,0003,Weather View 32 v70,2013-06-29 18:09:00,
2013-06-30 07:14:00,68.6,63.9,30.44,WNW,287,4.0,6.0,85,0.00,,,0.00,0003,Weather View 32 v70,2013-06-29 18:14:00,
2013-06-30 07:19:00,67.9,63.2,30.44,WNW,287,3.0,6.0,85,0.00,,,0.00,0003,Weather View 32 v70,2013-06-29 18:19:00,
2013-06-30 07:24:00,68.3,63.6,30.44,WSW,247,2.0,6.0,85,0.00,,,0.00,0003,Weather View 32 v70,2013-06-29 18:24:00,
2013-06-30 07:29:00,68.9,64.2,30.44,WNW,300,4.0,6.0,85,0.00,,,0.00,0003,Weather View 32 v70,2013-06-29 18:29:00,
2013-06-30 07:34:00,69.3,64.2,30.44,WNW,285,4.0,6.0,84,0.00,,,0.00,0003,Weather View 32 v70,2013-06-29 18:34:00,
2013-06-30 07:39:00,69.8,64.7,30.44,WNW,294,4.0,6.0,84,0.00,,,0.00,0003,Weather View 32 v70,2013-06-29 18:39:00,
2013-06-30 07:44:00,70.1,64.7,30.44,West,268,4.0,6.0,83,0.00,,,0.00,0003,Weather View 32 v70,2013-06-29 18:44:00,
2013-06-30 07:49:00,70.4,65.0,30.44,NW,310,4.0,6.0,83,0.00,,,0.00,0003,Weather View 32 v70,2013-06-29 18:49:00,
2013-06-30 07:54:00,71.2,65.4,30.44,WNW,294,4.0,6.0,82,0.00,,,0.00,0003,Weather View 32 v70,2013-06-29 18:54:00,
2013-06-30 07:59:00,71.6,65.1,30.44,WNW,302,4.0,7.0,80,0.00,,,0.00,0003,Weather View 32 v70,2013-06-29 18:59:00,
2013-06-30 08:04:00,70.8,63.9,30.44,WNW,296,3.0,8.0,79,0.00,,,0.00,0003,Weather View 32 v70,2013-06-29 19:04:00,
2013-06-30 08:09:00,70.7,64.2,30.44,WNW,292,4.0,8.0,80,0.00,,,0.00,0003,Weather View 32 v70,2013-06-29 19:09:00,
2013-06-30 08:14:00,70.6,64.1,30.44,West,276,3.0,8.0,80,0.00,,,0.00,0003,Weather View 32 v70,2013-06-29 19:14:00,
2013-06-30 08:19:00,69.9,63.4,30.44,WNW,287,4.0,8.0,80,0.00,,,0.00,0003,Weather View 32 v70,2013-06-29 19:19:00,
2013-06-30 08:24:00,70.4,64.6,30.44,West,279,3.0,8.0,82,0.00,,,0.00,0003,Weather View 32 v70,2013-06-29 19:24:00,
2013-06-30 08:29:00,71.1,64.6,30.45,NW,316,3.0,8.0,80,0.00,,,0.00,0003,Weather View 32 v70,2013-06-29 19:29:00,
2013-06-30 08:34:00,69.7,62.9,30.45,West,279,5.0,8.0,79,0.00,,,0.00,0003,Weather View 32 v70,2013-06-29 19:34:00,
2013-06-30 08:39:00,68.6,62.5,30.45,West,281,5.0,8.0,81,0.00,,,0.00,0003,Weather View 32 v70,2013-06-29 19:39:00,
2013-06-30 08:44:00,68.4,62.7,30.45,WNW,291,5.0,8.0,82,0.00,,,0.00,0003,Weather View 32 v70,2013-06-29 19:44:00,
2013-06-30 08:49:00,68.4,63.0,30.45,WSW,255,4.0,8.0,83,0.00,,,0.00,0003,Weather View 32 v70,2013-06-29 19:49:00,
2013-06-30 08:54:00,68.5,62.8,30.45,West,264,4.0,8.0,82,0.00,,,0.00,0003,Weather View 32 v70,2013-06-29 19:54:00,
2013-06-30 08:59:00,69.1,63.7,30.45,NW,326,2.0,8.0,83,0.00,,,0.00,0003,Weather View 32 v70,2013-06-29 19:59:00,
2013-06-30 09:04:00,69.9,64.5,30.45,WNW,291,3.0,7.0,83,0.00,,,0.00,0003,Weather View 32 v70,2013-06-29 20:04:00,
2013-06-30 09:09:00,70.1,64.3,30.44,WNW,287,5.0,7.0,82,0.00,,,0.00,0003,Weather View 32 v70,2013-06-29 20:09:00,
2013-06-30 09:14:00,70.8,64.7,30.44,WSW,257,5.0,7.0,81,0.00,,,0.00,0003,Weather View 32 v70,2013-06-29 20:14:00,
2013-06-30 09:19:00,70.9,64.8,30.44,NW,309,5.0,7.0,81,0.00,,,0.00,0003,Weather View 32 v70,2013-06-29 20:19:00,
2013-06-30 09:24:00,71.4,65.2,30.44,WSW,246,5.0,7.0,81,0.00,,,0.00,0003,Weather View 32 v70,2013-06-29 20:24:00,
2013-06-30 09:29:00,71.8,65.3,30.44,WNW,288,3.0,7.0,80,0.00,,,0.00,0003,Weather View 32 v70,2013-06-29 20:29:00,
2013-06-30 09:34:00,71.5,64.6,30.44,WNW,283,4.0,7.0,79,0.00,,,0.00,0003,Weather View 32 v70,2013-06-29 20:34:00,
2013-06-30 09:39:00,71.3,64.4,30.44,WNW,293,6.0,7.0,79,0.00,,,0.00,0003,Weather View 32 v70,2013-06-29 20:39:00,
2013-06-30 09:44:00,70.8,63.9,30.44,WNW,300,5.0,7.0,79,0.00,,,0.00,0003,Weather View 32 v70,2013-06-29 20:44:00,
2013-06-30 09:49:00,70.5,63.6,30.44,West,277,6.0,8.0,79,0.00,,,0.00,0003,Weather View 32 v70,2013-06-29 20:49:00,
2013-06-30 09:54:00,69.2,63.1,30.44,West,265,5.0,8.0,81,0.00,,,0.00,0003,Weather View 32 v70,2013-06-29 20:54:00,
2013-06-30 09:59:00,69.4,63.6,30.44,WNW,292,5.0,8.0,82,0.00,,,0.00,0003,Weather View 32 v70,2013-06-29 20:59:00,
2013-06-30 10:04:00,69.8,64.0,30.43,WSW,258,5.0,8.0,82,0.00,,,0.00,0003,Weather View 32 v70,2013-06-29 21:04:00,
2013-06-30 10:09:00,70.5,64.4,30.43,SW,236,4.0,8.0,81,0.00,,,0.00,0003,Weather View 32 v70,2013-06-29 21:09:00,
2013-06-30 10:14:00,71.0,64.9,30.43,West,261,4.0,8.0,81,0.00,,,0.00,0003,Weather View 32 v70,2013-06-29 21:14:00,
2013-06-30 10:19:00,71.2,64.3,30.43,WNW,284,6.0,8.0,79,0.00,,,0.00,0003,Weather View 32 v70,2013-06-29 21:19:00,
2013-06-30 10:24:00,69.0,62.2,30.43,WNW,286,4.0,8.0,79,0.00,,,0.00,0003,Weather View 32 v70,2013-06-29 21:24:00,
2013-06-30 10:29:00,68.5,62.1,30.43,West,270,6.0,8.0,80,0.00,,,0.00,0003,Weather View 32 v70,2013-06-29 21:29:00,
2013-06-30 10:34:00,68.5,63.1,30.42,West,276,5.0,8.0,83,0.00,,,0.00,0003,Weather View 32 v70,2013-06-29 21:34:00,
2013-06-30 10:39:00,69.6,63.8,30.42,WNW,291,5.0,8.0,82,0.00,,,0.00,0003,Weather View 32 v70,2013-06-29 21:39:00,
2013-06-30 10:44:00,69.6,63.1,30.42,WSW,256,4.0,8.0,80,0.00,,,0.00,0003,Weather View 32 v70,2013-06-29 21:44:00,
2013-06-30 10:49:00,69.3,62.8,30.42,WSW,249,5.0,8.0,80,0.00,,,0.00,0003,Weather View 32 v70,2013-06-29 21:49:00,
2013-06-30 10:54:00,69.0,62.2,30.42,WSW,242,5.0,8.0,79,0.00,,,0.00,0003,Weather View 32 v70,2013-06-29 21:54:00,
2013-06-30 10:59:00,68.5,61.3,30.42,WSW,247,8.0,8.0,78,0.00,,,0.00,0003,Weather View 32 v70,2013-06-29 21:59:00,
2013-06-30 11:04:00,67.4,60.3,30.42,West,271,5.0,8.0,78,0.00,,,0.00,0003,Weather View 32 v70,2013-06-29 22:04:00,
2013-06-30 11:09:00,67.1,60.3,30.42,WSW,253,4.0,10.0,79,0.00,,,0.00,0003,Weather View 32 v70,2013-06-29 22:09:00,
2013-06-30 11:14:00,67.5,60.7,30.42,WSW,251,5.0,10.0,79,0.00,,,0.00,0003,Weather View 32 v70,2013-06-29 22:14:00,
2013-06-30 11:19:00,68.5,62.1,30.41,West,261,4.0,11.0,80,0.00,,,0.00,0003,Weather View 32 v70,2013-06-29 22:19:00,
2013-06-30 11:24:00,69.3,62.5,30.41,WSW,254,7.0,11.0,79,0.00,,,0.00,0003,Weather View 32 v70,2013-06-29 22:24:00,
2013-06-30 11:29:00,69.4,62.2,30.41,WNW,284,8.0,11.0,78,0.00,,,0.00,0003,Weather View 32 v70,2013-06-29 22:29:00,
2013-06-30 11:34:00,69.9,62.7,30.41,West,263,6.0,11.0,78,0.00,,,0.00,0003,Weather View 32 v70,2013-06-29 22:34:00,
2013-06-30 11:39:00,69.7,61.8,30.41,WSW,249,7.0,11.0,76,0.00,,,0.00,0003,Weather View 32 v70,2013-06-29 22:39:00,
2013-06-30 11:44:00,70.4,62.1,30.41,WSW,256,6.0,11.0,75,0.00,,,0.00,0003,Weather View 32 v70,2013-06-29 22:44:00,
2013-06-30 11:49:00,70.7,62.4,30.41,WSW,247,6.0,11.0,75,0.00,,,0.00,0003,Weather View 32 v70,2013-06-29 22:49:00,
2013-06-30 11:54:00,71.0,61.5,30.41,WSW,256,7.0,11.0,72,0.00,,,0.00,0003,Weather View 32 v70,2013-06-29 22:54:00,
2013-06-30 11:59:00,70.7,61.2,30.41,WSW,247,5.0,11.0,72,0.00,,,0.00,0003,Weather View 32 v70,2013-06-29 22:59:00,
2013-06-30 12:04:00,71.1,61.6,30.41,WSW,256,6.0,11.0,72,0.00,,,0.00,0003,Weather View 32 v70,2013-06-29 23:04:00,
2013-06-30 12:09:00,70.9,60.6,30.41,NW,307,7.0,11.0,70,0.00,,,0.00,0003,Weather View 32 v70,2013-06-29 23:09:00,
2013-06-30 12:14:00,70.7,60.8,30.41,WSW,247,6.0,11.0,71,0.00,,,0.00,0003,Weather View 32 v70,2013-06-29 23:14:00,
2013-06-30 12:19:00,70.7,60.4,30.40,WNW,284,6.0,11.0,70,0.00,,,0.00,0003,Weather View 32 v70,2013-06-29 23:19:00,
2013-06-30 12:24:00,71.0,60.7,30.40,West,272,4.0,11.0,70,0.00,,,0.00,0003,Weather View 32 v70,2013-06-29 23:24:00,
2013-06-30 12:29:00,71.7,61.4,30.40,WSW,253,4.0,11.0,70,0.00,,,0.00,0003,Weather View 32 v70,2013-06-29 23:29:00,
2013-06-30 12:34:00,72.4,61.6,30.40,WNW,282,3.0,11.0,69,0.00,,,0.00,0003,Weather View 32 v70,2013-06-29 23:34:00,
2013-06-30 12:39:00,72.3,61.1,30.40,WSW,251,5.0,11.0,68,0.00,,,0.00,0003,Weather View 32 v70,2013-06-29 23:39:00,
2013-06-30 12:44:00,72.2,61.0,30.40,WNW,296,4.0,11.0,68,0.00,,,0.00,0003,Weather View 32 v70,2013-06-29 23:44:00,
2013-06-30 12:49:00,71.7,61.0,30.40,West,263,6.0,11.0,69,0.00,,,0.00,0003,Weather View 32 v70,2013-06-29 23:49:00,
2013-06-30 12:54:00,71.0,60.3,30.40,West,259,8.0,11.0,69,0.00,,,0.00,0003,Weather View 32 v70,2013-06-29 23:54:00,
2013-06-30 12:59:00,69.9,60.0,30.40,WSW,246,8.0,11.0,71,0.00,,,0.00,0003,Weather View 32 v70,2013-06-29 23:59:00,
2013-06-30 13:04:00,70.0,60.5,30.39,West,262,4.0,11.0,72,0.00,,,0.00,0003,Weather View 32 v70,2013-06-30 00:04:00,
2013-06-30 13:09:00,70.6,61.1,30.39,West,264,7.0,11.0,72,0.00,,,0.00,0003,Weather View 32 v70,2013-06-30 00:09:00,
2013-06-30 13:14:00,69.9,60.4,30.40,West,263,9.0,11.0,72,0.00,,,0.00,0003,Weather View 32 v70,2013-06-30 00:14:00,
2013-06-30 13:19:00,68.5,59.9,30.40,WSW,258,6.0,11.0,74,0.00,,,0.00,0003,Weather View 32 v70,2013-06-30 00:19:00,
2013-06-30 13:24:00,69.0,60.7,30.39,West,274,7.0,11.0,75,0.00,,,0.00,0003,Weather View 32 v70,2013-06-30 00:24:00,
2013-06-30 13:29:00,69.2,60.9,30.39,West,268,5.0,11.0,75,0.00,,,0.00,0003,Weather View 32 v70,2013-06-30 00:29:00,
2013-06-30 13:34:00,69.3,61.0,30.39,SW,236,8.0,11.0,75,0.00,,,0.00,0003,Weather View 32 v70,2013-06-30 00:34:00,
2013-06-30 13:39:00,69.9,61.6,30.39,WSW,243,4.0,11.0,75,0.00,,,0.00,0003,Weather View 32 v70,2013-06-30 00:39:00,
2013-06-30 13:44:00,70.3,61.6,30.39,SW,233,5.0,11.0,74,0.00,,,0.00,0003,Weather View 32 v70,2013-06-30 00:44:00,
2013-06-30 13:49:00,70.3,61.6,30.39,West,264,5.0,11.0,74,0.00,,,0.00,0003,Weather View 32 v70,2013-06-30 00:49:00,
2013-06-30 13:54:00,70.3,61.2,30.39,West,260,6.0,11.0,73,0.00,,,0.00,0003,Weather View 32 v70,2013-06-30 00:54:00,
2013-06-30 13:59:00,69.7,61.0,30.39,WSW,257,6.0,11.0,74,0.00,,,0.00,0003,Weather View 32 v70,2013-06-30 00:59:00,
2013-06-30 14:04:00,69.7,61.0,30.38,West,271,5.0,11.0,74,0.00,,,0.00,0003,Weather View 32 v70,2013-06-30 01:04:00,
2013-06-30 14:09:00,69.8,61.1,30.38,WNW,296,5.0,11.0,74,0.00,,,0.00,0003,Weather View 32 v70,2013-06-30 01:09:00,
2013-06-30 14:14:00,70.1,61.4,30.38,West,268,4.0,11.0,74,0.00,,,0.00,0003,Weather View 32 v70,2013-06-30 01:14:00,
2013-06-30 14:19:00,69.7,61.0,30.38,WNW,284,5.0,9.0,74,0.00,,,0.00,0003,Weather View 32 v70,2013-06-30 01:19:00,
2013-06-30 14:24:00,69.0,60.0,30.38,West,277,5.0,8.0,73,0.00,,,0.00,0003,Weather View 32 v70,2013-06-30 01:24:00,
2013-06-30 14:29:00,67.6,59.0,30.38,WSW,250,5.0,8.0,74,0.00,,,0.00,0003,Weather View 32 v70,2013-06-30 01:29:00,
2013-06-30 14:34:00,66.8,59.0,30.38,West,270,3.0,8.0,76,0.00,,,0.00,0003,Weather View 32 v70,2013-06-30 01:34:00,
2013-06-30 14:39:00,66.6,59.1,30.38,WNW,291,3.0,8.0,77,0.00,,,0.00,0003,Weather View 32 v70,2013-06-30 01:39:00,
2013-06-30 14:44:00,66.4,58.9,30.38,West,267,3.0,8.0,77,0.00,,,0.00,0003,Weather View 32 v70,2013-06-30 01:44:00,
2013-06-30 14:49:00,66.1,58.7,30.38,West,260,3.0,8.0,77,0.00,,,0.00,0003,Weather View 32 v70,2013-06-30 01:49:00,
2013-06-30 14:54:00,66.3,59.2,30.37,West,268,2.0,8.0,78,0.00,,,0.00,0003,Weather View 32 v70,2013-06-30 01:54:00,
2013-06-30 14:59:00,66.6,59.1,30.38,West,265,2.0,8.0,77,0.00,,,0.00,0003,Weather View 32 v70,2013-06-30 01:59:00,
2013-06-30 15:04:00,66.9,59.1,30.38,West,260,4.0,8.0,76,0.00,,,0.00,0003,Weather View 32 v70,2013-06-30 02:04:00,
2013-06-30 15:09:00,67.2,59.0,30.38,WSW,250,3.0,8.0,75,0.00,,,0.00,0003,Weather View 32 v70,2013-06-30 02:09:00,
2013-06-30 15:14:00,67.9,59.3,30.37,WSW,240,3.0,8.0,74,0.00,,,0.00,0003,Weather View 32 v70,2013-06-30 02:14:00,
2013-06-30 15:19:00,68.4,59.4,30.37,WSW,255,6.0,8.0,73,0.00,,,0.00,0003,Weather View 32 v70,2013-06-30 02:19:00,
2013-06-30 15:24:00,68.7,58.5,30.37,West,270,2.0,8.0,70,0.00,,,0.00,0003,Weather View 32 v70,2013-06-30 02:24:00,
2013-06-30 15:29:00,69.9,59.2,30.37,West,269,3.0,7.0,69,0.00,,,0.00,0003,Weather View 32 v70,2013-06-30 02:29:00,
2013-06-30 15:34:00,70.5,59.0,30.37,SW,230,2.0,7.0,67,0.00,,,0.00,0003,Weather View 32 v70,2013-06-30 02:34:00,
2013-06-30 15:39:00,71.4,59.8,30.37,SW,219,1.0,7.0,67,0.00,,,0.00,0003,Weather View 32 v70,2013-06-30 02:39:00,
2013-06-30 15:44:00,71.8,59.8,30.37,SW,221,2.0,7.0,66,0.00,,,0.00,0003,Weather View 32 v70,2013-06-30 02:44:00,
2013-06-30 15:49:00,72.2,60.2,30.37,WSW,252,2.0,7.0,66,0.00,,,0.00,0003,Weather View 32 v70,2013-06-30 02:49:00,
2013-06-30 15:54:00,72.5,60.0,30.36,SSW,209,1.0,7.0,65,0.00,,,0.00,0003,Weather View 32 v70,2013-06-30 02:54:00,
2013-06-30 15:59:00,73.0,60.5,30.36,SSW,209,0.0,7.0,65,0.00,,,0.00,0003,Weather View 32 v70,2013-06-30 02:59:00,
2013-06-30 16:04:00,73.9,60.9,30.37,SSW,200,1.0,7.0,64,0.00,,,0.00,0003,Weather View 32 v70,2013-06-30 03:04:00,
2013-06-30 16:09:00,73.8,60.4,30.37,SW,214,1.0,7.0,63,0.00,,,0.00,0003,Weather View 32 v70,2013-06-30 03:09:00,
2013-06-30 16:14:00,73.9,60.5,30.37,SW,216,1.0,7.0,63,0.00,,,0.00,0003,Weather View 32 v70,2013-06-30 03:14:00,
2013-06-30 16:19:00,74.0,60.6,30.36,SW,215,1.0,7.0,63,0.00,,,0.00,0003,Weather View 32 v70,2013-06-30 03:19:00,
2013-06-30 16:24:00,73.2,59.8,30.36,WSW,240,2.0,5.0,63,0.00,,,0.00,0003,Weather View 32 v70,2013-06-30 03:24:00,
2013-06-30 16:29:00,72.5,60.0,30.36,SSW,211,3.0,5.0,65,0.00,,,0.00,0003,Weather View 32 v70,2013-06-30 03:29:00,
2013-06-30 16:34:00,69.7,56.9,30.37,NW,305,3.0,4.0,64,0.00,,,0.00,0003,Weather View 32 v70,2013-06-30 03:34:00,
2013-06-30 16:39:00,69.0,58.4,30.37,SSW,194,2.0,4.0,69,0.00,,,0.00,0003,Weather View 32 v70,2013-06-30 03:39:00,
2013-06-30 16:44:00,69.6,59.3,30.36,SSE,158,1.0,4.0,70,0.00,,,0.00,0003,Weather View 32 v70,2013-06-30 03:44:00,
2013-06-30 16:49:00,69.7,59.4,30.37,SW,228,2.0,4.0,70,0.00,,,0.00,0003,Weather View 32 v70,2013-06-30 03:49:00,
2013-06-30 16:54:00,69.3,59.5,30.37,NW,315,1.0,4.0,71,0.00,,,0.00,0003,Weather View 32 v70,2013-06-30 03:54:00,
2013-06-30 16:59:00,69.2,59.8,30.37,SSW,206,1.0,4.0,72,0.00,,,0.00,0003,Weather View 32 v70,2013-06-30 03:59:00,
2013-06-30 17:01:00,69.0,59.6,30.37,SSW,207,0.0,4.0,72,0.00,,,0.00,0003,Weather View 32 v70,2013-06-30 04:01:00,
2013-06-30 17:06:00,68.8,59.8,30.36,SSW,203,2.0,4.0,73,0.00,,,0.00,0003,Weather View 32 v70,2013-06-30 04:06:00,
2013-06-30 17:11:00,69.3,59.9,30.36,West,261,2.0,4.0,72,0.00,,,0.00,0003,Weather View 32 v70,2013-06-30 04:11:00,
2013-06-30 17:16:00,69.4,59.6,30.37,SSW,211,3.0,5.0,71,0.00,,,0.00,0003,Weather View 32 v70,2013-06-30 04:16:00,
2013-06-30 17:21:00,69.4,59.6,30.37,SW,226,2.0,5.0,71,0.00,,,0.00,0003,Weather View 32 v70,2013-06-30 04:21:00,
2013-06-30 17:26:00,69.3,59.5,30.37,WSW,237,3.0,5.0,71,0.00,,,0.00,0003,Weather View 32 v70,2013-06-30 04:26:00,
2013-06-30 17:31:00,69.2,59.8,30.37,SSW,206,2.0,5.0,72,0.00,,,0.00,0003,Weather View 32 v70,2013-06-30 04:31:00,
2013-06-30 17:36:00,69.2,59.8,30.37,West,271,2.0,5.0,72,0.00,,,0.00,0003,Weather View 32 v70,2013-06-30 04:36:00,
2013-06-30 17:41:00,68.6,59.6,30.37,SSW,212,3.0,5.0,73,0.00,,,0.00,0003,Weather View 32 v70,2013-06-30 04:41:00,
2013-06-30 17:46:00,68.2,59.6,30.37,East,99,2.0,5.0,74,0.00,,,0.00,0003,Weather View 32 v70,2013-06-30 04:46:00,
2013-06-30 17:51:00,68.1,59.8,30.37,ESE,110,0.0,5.0,75,0.00,,,0.00,0003,Weather View 32 v70,2013-06-30 04:51:00,
2013-06-30 17:56:00,68.2,59.9,30.37,SW,223,2.0,5.0,75,0.00,,,0.00,0003,Weather View 32 v70,2013-06-30 04:56:00,
2013-06-30 18:01:00,68.0,59.8,30.37,SSW,207,2.0,5.0,75,0.00,,,0.00,0003,Weather View 32 v70,2013-06-30 05:01:00,
2013-06-30 18:06:00,68.0,60.1,30.37,SE,143,1.0,5.0,76,0.00,,,0.00,0003,Weather View 32 v70,2013-06-30 05:06:00,
2013-06-30 18:11:00,68.2,60.3,30.37,SE,132,1.0,5.0,76,0.00,,,0.00,0003,Weather View 32 v70,2013-06-30 05:11:00,
2013-06-30 18:16:00,68.2,60.3,30.37,ESE,113,2.0,5.0,76,0.00,,,0.00,0003,Weather View 32 v70,2013-06-30 05:16:00,
2013-06-30 18:21:00,68.8,60.9,30.37,West,273,2.0,5.0,76,0.00,,,0.00,0003,Weather View 32 v70,2013-06-30 05:21:00,
2013-06-30 18:26:00,70.0,61.3,30.37,WNW,290,1.0,5.0,74,0.00,,,0.00,0003,Weather View 32 v70,2013-06-30 05:26:00,
2013-06-30 18:31:00,70.7,61.2,30.37,West,275,4.0,5.0,72,0.00,,,0.00,0003,Weather View 32 v70,2013-06-30 05:31:00,
2013-06-30 18:36:00,71.2,60.9,30.37,SW,226,2.0,5.0,70,0.00,,,0.00,0003,Weather View 32 v70,2013-06-30 05:36:00,
2013-06-30 18:41:00,71.4,60.7,30.37,West,263,2.0,5.0,69,0.00,,,0.00,0003,Weather View 32 v70,2013-06-30 05:41:00,
2013-06-30 18:46:00,71.5,60.3,30.37,SW,220,3.0,5.0,68,0.00,,,0.00,0003,Weather View 32 v70,2013-06-30 05:46:00,
2013-06-30 18:51:00,70.6,60.7,30.37,WNW,288,1.0,5.0,71,0.00,,,0.00,0003,Weather View 32 v70,2013-06-30 05:51:00,
2013-06-30 18:56:00,68.4,59.4,30.37,WNW,297,2.0,5.0,73,0.00,,,0.00,0003,Weather View 32 v70,2013-06-30 05:56:00,
2013-06-30 19:01:00,66.4,58.6,30.37,West,269,3.0,5.0,76,0.00,,,0.00,0003,Weather View 32 v70,2013-06-30 06:01:00,
2013-06-30 19:06:00,66.8,59.0,30.37,WSW,247,3.0,5.0,76,0.00,,,0.00,0003,Weather View 32 v70,2013-06-30 06:06:00,
2013-06-30 19:11:00,65.8,58.4,30.37,NW,320,1.0,5.0,77,0.00,,,0.00,0003,Weather View 32 v70,2013-06-30 06:11:00,
2013-06-30 19:16:00,65.4,58.0,30.37,West,263,2.0,5.0,77,0.00,,,0.00,0003,Weather View 32 v70,2013-06-30 06:16:00,
2013-06-30 19:21:00,65.5,58.8,30.37,South,188,1.0,5.0,79,0.00,,,0.00,0003,Weather View 32 v70,2013-06-30 06:21:00,
2013-06-30 19:26:00,66.2,59.5,30.37,ESE,108,1.0,5.0,79,0.00,,,0.00,0003,Weather View 32 v70,2013-06-30 06:26:00,
2013-06-30 19:31:00,66.8,59.7,30.37,SW,228,2.0,5.0,78,0.00,,,0.00,0003,Weather View 32 v70,2013-06-30 06:31:00,
2013-06-30 19:37:00,67.4,59.9,30.37,SE,139,2.0,5.0,77,0.00,,,0.00,0003,Weather View 32 v70,2013-06-30 06:37:00,
2013-06-30 19:42:00,68.0,59.8,30.37,South,187,3.0,5.0,75,0.00,,,0.00,0003,Weather View 32 v70,2013-06-30 06:42:00,
2013-06-30 19:47:00,68.3,59.7,30.37,East,100,2.0,4.0,74,0.00,,,0.00,0003,Weather View 32 v70,2013-06-30 06:47:00,
2013-06-30 19:52:00,68.7,59.7,30.37,ESE,122,2.0,4.0,73,0.00,,,0.00,0003,Weather View 32 v70,2013-06-30 06:52:00,
2013-06-30 19:57:00,68.8,59.4,30.37,SSE,156,1.0,4.0,72,0.00,,,0.00,0003,Weather View 32 v70,2013-06-30 06:57:00,
2013-06-30 20:02:00,68.7,58.9,30.37,SE,136,0.0,4.0,71,0.00,,,0.00,0003,Weather View 32 v70,2013-06-30 07:02:00,
2013-06-30 20:07:00,68.6,58.8,30.37,WSW,239,2.0,5.0,71,0.00,,,0.00,0003,Weather View 32 v70,2013-06-30 07:07:00,
2013-06-30 20:12:00,68.3,58.5,30.37,WSW,255,3.0,5.0,71,0.00,,,0.00,0003,Weather View 32 v70,2013-06-30 07:12:00,
2013-06-30 20:17:00,67.7,58.3,30.37,SW,215,2.0,5.0,72,0.00,,,0.00,0003,Weather View 32 v70,2013-06-30 07:17:00,
2013-06-30 20:22:00,67.2,57.8,30.37,SSE,158,1.0,5.0,72,0.00,,,0.00,0003,Weather View 32 v70,2013-06-30 07:22:00,
2013-06-30 20:27:00,66.7,57.7,30.37,NE,53,1.0,5.0,73,0.00,,,0.00,0003,Weather View 32 v70,2013-06-30 07:27:00,
2013-06-30 20:32:00,66.6,58.0,30.37,ESE,110,2.0,5.0,74,0.00,,,0.00,0003,Weather View 32 v70,2013-06-30 07:32:00,
2013-06-30 20:37:00,66.5,57.9,30.37,SE,130,1.0,5.0,74,0.00,,,0.00,0003,Weather View 32 v70,2013-06-30 07:37:00,
2013-06-30 20:42:00,66.7,58.1,30.37,South,190,1.0,5.0,74,0.00,,,0.00,0003,Weather View 32 v70,2013-06-30 07:42:00,
2013-06-30 20:47:00,66.9,58.3,30.37,SW,235,3.0,6.0,74,0.00,,,0.00,0003,Weather View 32 v70,2013-06-30 07:47:00,
2013-06-30 20:52:00,66.5,58.3,30.37,SW,235,4.0,7.0,75,0.00,,,0.00,0003,Weather View 32 v70,2013-06-30 07:52:00,
2013-06-30 20:57:00,66.0,57.8,30.37,WNW,294,3.0,7.0,75,0.00,,,0.00,0003,Weather View 32 v70,2013-06-30 07:57:00,
2013-06-30 21:02:00,65.5,57.7,30.37,SW,236,2.0,7.0,76,0.00,,,0.00,0003,Weather View 32 v70,2013-06-30 08:02:00,
2013-06-30 21:07:00,65.2,57.4,30.37,SW,233,4.0,7.0,76,0.00,,,0.00,0003,Weather View 32 v70,2013-06-30 08:07:00,
2013-06-30 21:12:00,64.8,56.7,30.37,SW,220,2.0,7.0,75,0.00,,,0.00,0003,Weather View 32 v70,2013-06-30 08:12:00,
2013-06-30 21:17:00,64.5,56.4,30.37,SSW,209,2.0,7.0,75,0.00,,,0.00,0003,Weather View 32 v70,2013-06-30 08:17:00,
2013-06-30 21:22:00,64.3,55.8,30.37,South,189,1.0,7.0,74,0.00,,,0.00,0003,Weather View 32 v70,2013-06-30 08:22:00,
2013-06-30 21:27:00,64.2,55.3,30.37,WSW,248,3.0,7.0,73,0.00,,,0.00,0003,Weather View 32 v70,2013-06-30 08:27:00,
2013-06-30 21:32:00,64.0,55.1,30.37,SSW,194,3.0,7.0,73,0.00,,,0.00,0003,Weather View 32 v70,2013-06-30 08:32:00,
2013-06-30 21:37:00,64.1,54.5,30.37,SW,224,2.0,7.0,71,0.00,,,0.00,0003,Weather View 32 v70,2013-06-30 08:37:00,
2013-06-30 21:42:00,64.2,54.2,30.37,SW,218,2.0,7.0,70,0.00,,,0.00,0003,Weather View 32 v70,2013-06-30 08:42:00,
2013-06-30 21:47:00,64.3,53.9,30.36,SSW,202,3.0,7.0,69,0.00,,,0.00,0003,Weather View 32 v70,2013-06-30 08:47:00,
2013-06-30 21:52:00,64.7,53.9,30.36,SW,220,4.0,6.0,68,0.00,,,0.00,0003,Weather View 32 v70,2013-06-30 08:52:00,
2013-06-30 21:57:00,65.1,53.8,30.36,SSE,164,1.0,6.0,67,0.00,,,0.00,0003,Weather View 32 v70,2013-06-30 08:57:00,
2013-06-30 22:02:00,65.2,53.9,30.36,South,179,2.0,6.0,67,0.00,,,0.00,0003,Weather View 32 v70,2013-06-30 09:02:00,
2013-06-30 22:07:00,65.1,54.2,30.36,East,80,2.0,6.0,68,0.00,,,0.00,0003,Weather View 32 v70,2013-06-30 09:07:00,
2013-06-30 22:12:00,65.1,54.6,30.36,ESE,105,2.0,6.0,69,0.00,,,0.00,0003,Weather View 32 v70,2013-06-30 09:12:00,
2013-06-30 22:17:00,65.1,55.0,30.36,SSE,165,1.0,6.0,70,0.00,,,0.00,0003,Weather View 32 v70,2013-06-30 09:17:00,
2013-06-30 22:22:00,65.4,55.7,30.36,SSW,199,2.0,6.0,71,0.00,,,0.00,0003,Weather View 32 v70,2013-06-30 09:22:00,
2013-06-30 22:27:00,65.7,56.0,30.36,SSE,160,2.0,5.0,71,0.00,,,0.00,0003,Weather View 32 v70,2013-06-30 09:27:00,
2013-06-30 22:32:00,66.1,56.4,30.36,SSE,150,1.0,5.0,71,0.00,,,0.00,0003,Weather View 32 v70,2013-06-30 09:32:00,
2013-06-30 22:37:00,66.4,56.7,30.36,SE,134,2.0,5.0,71,0.00,,,0.00,0003,Weather View 32 v70,2013-06-30 09:37:00,
2013-06-30 22:42:00,66.9,57.2,30.36,SE,124,1.0,5.0,71,0.00,,,0.00,0003,Weather View 32 v70,2013-06-30 09:42:00,
2013-06-30 22:47:00,67.0,57.3,30.36,ESE,107,2.0,5.0,71,0.00,,,0.00,0003,Weather View 32 v70,2013-06-30 09:47:00,
2013-06-30 22:52:00,67.0,57.3,30.36,SE,128,2.0,5.0,71,0.00,,,0.00,0003,Weather View 32 v70,2013-06-30 09:52:00,
2013-06-30 22:57:00,66.9,57.2,30.36,ESE,113,2.0,5.0,71,0.00,,,0.00,0003,Weather View 32 v70,2013-06-30 09:57:00,
2013-06-30 23:02:00,66.8,57.1,30.36,ESE,111,2.0,5.0,71,0.00,,,0.00,0003,Weather View 32 v70,2013-06-30 10:02:00,
2013-06-30 23:07:00,66.8,57.5,30.36,ESE,115,1.0,5.0,72,0.00,,,0.00,0003,Weather View 32 v70,2013-06-30 10:07:00,
2013-06-30 23:12:00,67.0,57.6,30.36,ESE,113,1.0,5.0,72,0.00,,,0.00,0003,Weather View 32 v70,2013-06-30 10:12:00,
2013-06-30 23:17:00,67.2,57.8,30.36,SE,137,1.0,5.0,72,0.00,,,0.00,0003,Weather View 32 v70,2013-06-30 10:17:00,
2013-06-30 23:22:00,67.5,58.1,30.35,SSW,195,1.0,5.0,72,0.00,,,0.00,0003,Weather View 32 v70,2013-06-30 10:22:00,
2013-06-30 23:27:00,67.4,58.0,30.35,ESE,112,2.0,4.0,72,0.00,,,0.00,0003,Weather View 32 v70,2013-06-30 10:27:00,
2013-06-30 23:32:00,67.2,58.2,30.35,SE,142,2.0,4.0,73,0.00,,,0.00,0003,Weather View 32 v70,2013-06-30 10:32:00,
2013-06-30 23:37:00,67.3,58.3,30.35,ESE,114,0.0,4.0,73,0.00,,,0.00,0003,Weather View 32 v70,2013-06-30 10:37:00,
2013-06-30 23:42:00,67.1,58.1,30.35,East,97,1.0,4.0,73,0.00,,,0.00,0003,Weather View 32 v70,2013-06-30 10:42:00,
2013-06-30 23:47:00,67.1,58.5,30.35,ESE,108,3.0,4.0,74,0.00,,,0.00,0003,Weather View 32 v70,2013-06-30 10:47:00,
2013-06-30 23:52:00,67.4,58.8,30.35,ESE,112,2.0,4.0,74,0.00,,,0.00,0003,Weather View 32 v70,2013-06-30 10:52:00,
2013-06-30 23:57:00,67.3,58.7,30.35,ESE,115,2.0,4.0,74,0.00,,,0.00,0003,Weather View 32 v70,2013-06-30 10:57:00,